Regional Weather Roundup
Issued by NWS

Home | Current Version | Previous Version | Graphics & Text | Print | Product List | Glossary On
Versions: 1 2 3 4 5 6 7 8 9 10 11 12 13 14 15 16 17 18 19 20 21 22 23 24 25 26 27 28 29 30 31 32 33 34 35 36 37 38 39 40 41 42 43 44 45 46 47 48 49 50
000
ASUS43 KDMX 230207
RWRIA

WEATHER ROUNDUP FOR IOWA
NATIONAL WEATHER SERVICE DES MOINES IA
900 PM CDT FRI MAY 22 2015

NOTE: "FAIR" INDICATES FEW OR NO CLOUDS BELOW 12,000 FEET WITH NO
SIGNIFICANT WEATHER AND/OR OBSTRUCTIONS TO VISIBILITY.

* - THESE STATIONS ARE NOT NWS STATIONS...THUS NOT UNDER NWS
QUALITY CONTROL.  THEY ALSO DO NOT REPORT WEATHER SUCH
AS PRECIPITATION OR FOG.

IAZ001>003-012>014-020>022-031>034-043>046-230300-
   NORTHWEST IOWA

CITY           SKY/WX    TMP DP  RH WIND       PRES   REMARKS
CARROLL *      CLOUDY    61  45  55 SW6       30.20S
CHEROKEE *     CLOUDY    59  45  58 SW8       30.20R
DENISON *      CLOUDY    57  52  82 SE5       30.18S
LE MARS *      CLOUDY    61  45  55 SE5       30.19F
ORANGE CITY *  MOCLDY    59  43  55 SW14      30.20R
SHELDON *      CLEAR     61  43  51 SW9       30.19R
SIOUX CITY     CLOUDY    60  46  59 SE9       30.18F
SPENCER        CLOUDY    63  43  48 W16       30.20R
STORM LAKE *   CLOUDY    61  43  51 SW12      30.21S
$$

IAZ055>058-069>071-079>083-090>094-230300-
   SOUTHWEST IOWA

CITY           SKY/WX    TMP DP  RH WIND       PRES   REMARKS
ATLANTIC *     CLOUDY    63  45  51 SE6       30.20S
AUDUBON *      CLEAR     59  50  72 CALM      30.21S
CLARINDA *     MOCLDY    63  46  55 SE5       30.22R
COUNCIL BLFS * CLOUDY    61  48  63 SE6       30.19S
CRESTON *      CLOUDY    59  50  72 S6        30.21S
HARLAN  *      CLOUDY    59  52  77 E3        30.23S
LAMONI         PTCLDY    64  53  67 SE3       30.22S
RED OAK *      CLOUDY    61  50  67 E7        30.19F
SHENANDOAH *   CLOUDY    63  48  59 S7        30.20S
$$

IAZ047>049-059>061-072>074-084-230300-
   CENTRAL IOWA

CITY           SKY/WX    TMP DP  RH WIND       PRES   REMARKS
AMES           CLOUDY    65  45  48 W13       30.20R
ANKENY *       CLOUDY    64  45  48 W7        30.21R
CHARITON *     MOCLDY    63  48  59 CALM      30.22S
DES MOINES     CLOUDY    65  45  48 SW7       30.21R
GRINNELL*      CLOUDY    66  45  45 SW9       30.21S
KNOXVILLE *    CLOUDY    64  46  52 W8        30.21S
MARSHALLTOWN   CLOUDY    66  41  40 S6        30.18S
PELLA *        CLOUDY    64  52  63 SW9       30.23R
PERRY *        DRIZZLE   61  45  55 NE6       30.21R
$$

IAZ004>006-015-016-023>025-035-036-230300-
   NORTH CENTRAL IOWA

CITY           SKY/WX    TMP DP  RH WIND       PRES   REMARKS
ALGONA *       CLEAR     66  37  34 SE5       30.18S
CLARION *      CLEAR     66  39  37 S3        30.18S
ESTHERVILLE    CLOUDY    63  39  41 SE7       30.17R
FORT DODGE *   CLOUDY    61  43  51 SW7       30.21R
MASON CITY     CLOUDY    65  40  39 CALM      30.19S
FOREST CITY *  CLEAR     61  41  48 CALM      30.18S
IOWA FALLS *     N/A     66  37  34 S7        30.20R
$$

IAZ007>011-017>019-026>030-037>042-050>054-066-230300-
   NORTHEAST IOWA

CITY           SKY/WX    TMP DP  RH WIND       PRES   REMARKS
CEDAR RAPIDS   CLOUDY    63  46  54 CALM      30.20R
CHARLES CITY * CLEAR     64  37  36 SE5       30.19S
CLINTON *      CLOUDY    63  45  51 E5        30.23S
DECORAH *      CLEAR     64  37  36 E5        30.20R
DUBUQUE        CLOUDY    62  46  55 E6        30.22R
MONTICELLO *   CLEAR     64  48  55 CALM      30.20R
OELWEIN *      CLEAR     66  39  37 S6        30.20S
WATERLOO       CLOUDY    64  46  52 SE3       30.18R
$$

IAZ064-065-067-068-078-230300-
   EAST CENTRAL IOWA

CITY           SKY/WX    TMP DP  RH WIND       PRES   REMARKS
DAVENPORT      CLOUDY    68  38  33 CALM      30.21R
IOWA CITY      CLOUDY    66  48  52 CALM      30.21S
MT. PLEASANT * CLOUDY    66  46  48 S8        30.22R
MUSCATINE *    CLEAR     64  52  63 W3        30.21R
QUAD CITIES    CLOUDY    64  48  56 CALM      30.20R
$$

IAZ062-063-075>077-085>089-095>099-230300-
   SOUTHEAST IOWA

CITY           SKY/WX    TMP DP  RH WIND       PRES   REMARKS
BURLINGTON     CLOUDY    66  48  52 SW5       30.21S
FAIRFIELD *    CLOUDY    66  54  63 SW6       30.22R
FORT MADISON * CLEAR     64  54  68 SW5       30.23S
KEOKUK *       MOCLDY    64  55  72 SW7       30.22S
OSKALOOSA *    CLOUDY    66  50  55 W8G16     30.22R
CENTERVILLE *  CLEAR     61  61 100 S5        30.24S
OTTUMWA        CLOUDY    65  53  65 SW6       30.22R
WASHINGTON *   MOCLDY    66  46  48 S5        30.22S
$$

ABBREVIATIONS USED IN REMARKS
   TC - TEMPERATURES IN CELSIUS
  WCI - WIND CHILL INDEX
   HX - HEAT INDEX
  VSB - VISIBILITY
$$



USA.gov is the U.S. government's official web portal to all federal, state and local government web resources and services.